• In Hungary
  • List of Countries
  • For 7 days
  • Water Temperature
  • Satellite Maps
  • Weather Map
  • News
  • Weather Widgets
  • user-avatar
    Login

    Hourly Weather Perhurovo

    Today, 23 November, Thursday

    Time Temperature Precipitation Wind Pressure Humidity
    00:00 -7°C° 0 mm 4 mps 747 mmHg 72%
    01:00 -7°C° 0 mm 4 mps 747 mmHg 72%
    02:00 -7°C° 0 mm 4 mps 748 mmHg 72%
    03:00 -7°C° 0 mm 4 mps 748 mmHg 73%
    04:00 -6°C° 0 mm 3 mps 748 mmHg 73%
    05:00 -7°C° 0 mm 3 mps 749 mmHg 74%
    06:00 -7°C° 0 mm 3 mps 749 mmHg 75%
    07:00 -7°C° 0 mm 3 mps 749 mmHg 76%
    08:00 -7°C° 0 mm 3 mps 749 mmHg 77%
    09:00 -7°C° 0 mm 3 mps 750 mmHg 74%
    10:00 -7°C° 0 mm 3 mps 750 mmHg 71%
    11:00 -7°C° 0 mm 3 mps 750 mmHg 69%
    12:00 -6°C° 0 mm 3 mps 751 mmHg 68%
    13:00 -6°C° 0 mm 3 mps 751 mmHg 67%
    14:00 -6°C° 0 mm 3 mps 751 mmHg 66%
    15:00 -6°C° 0 mm 2 mps 752 mmHg 69%
    16:00 -6°C° 0 mm 2 mps 752 mmHg 71%
    17:00 -6°C° 0 mm 1 mps 752 mmHg 74%
    18:00 -6°C° 0 mm 1 mps 753 mmHg 75%
    19:00 -6°C° 0 mm 1 mps 753 mmHg 77%
    20:00 -6°C° 0 mm 1 mps 753 mmHg 78%
    21:00 -7°C° 0 mm 1 mps 753 mmHg 79%
    22:00 -7°C° 0 mm 1 mps 753 mmHg 80%
    23:00 -7°C° 0 mm 0 mps 754 mmHg 81%

    Tomorrow, 24 November, Friday

    Time Temperature Precipitation Wind Pressure Humidity
    00:00 -7°C° 0 mm 0 mps 754 mmHg 81%
    01:00 -7°C° 0 mm 0 mps 754 mmHg 81%
    02:00 -7°C° 0 mm 1 mps 754 mmHg 82%
    03:00 -7°C° 0 mm 1 mps 754 mmHg 82%
    04:00 -7°C° 0 mm 1 mps 754 mmHg 83%
    05:00 -7°C° 0 mm 1 mps 754 mmHg 83%
    06:00 -7°C° 0 mm 1 mps 754 mmHg 83%
    07:00 -7°C° 0 mm 1 mps 755 mmHg 82%
    08:00 -8°C° 0 mm 2 mps 755 mmHg 82%
    09:00 -7°C° 0 mm 2 mps 755 mmHg 77%
    10:00 -7°C° 0 mm 2 mps 755 mmHg 72%
    11:00 -6°C° 0 mm 2 mps 755 mmHg 68%
    12:00 -5°C° 0 mm 2 mps 754 mmHg 66%
    13:00 -5°C° 0 mm 2 mps 754 mmHg 65%
    14:00 -5°C° 0 mm 2 mps 754 mmHg 63%
    15:00 -5°C° 0 mm 2 mps 754 mmHg 63%
    16:00 -5°C° 0 mm 2 mps 754 mmHg 63%
    17:00 -5°C° 0 mm 2 mps 754 mmHg 63%
    18:00 -6°C° 0 mm 3 mps 754 mmHg 63%
    19:00 -6°C° 0 mm 3 mps 754 mmHg 62%
    20:00 -6°C° 0 mm 3 mps 754 mmHg 62%
    21:00 -5°C° 0 mm 3 mps 754 mmHg 61%
    22:00 -5°C° 0 mm 3 mps 754 mmHg 60%
    23:00 -5°C° 0 mm 3 mps 754 mmHg 59%

    Day after tomorrow, 25 November, Saturday

    Time Temperature Precipitation Wind Pressure Humidity
    00:00 -5°C° 0 mm 3 mps 753 mmHg 61%
    01:00 -5°C° 0 mm 3 mps 753 mmHg 62%
    02:00 -4°C° 0 mm 3 mps 753 mmHg 64%
    03:00 -5°C° 0.1 mm 3 mps 753 mmHg 68%
    04:00 -5°C° 0.1 mm 3 mps 753 mmHg 73%
    05:00 -5°C° 0.1 mm 3 mps 752 mmHg 77%
    06:00 -5°C° 0 mm 3 mps 752 mmHg 77%
    07:00 -4°C° 0 mm 3 mps 752 mmHg 78%
    08:00 -4°C° 0 mm 3 mps 752 mmHg 78%
    09:00 -4°C° 0 mm 3 mps 752 mmHg 76%
    10:00 -2°C° 0 mm 3 mps 751 mmHg 75%
    11:00 -2°C° 0 mm 3 mps 751 mmHg 73%
    12:00 -2°C° 0 mm 3 mps 751 mmHg 75%
    13:00 -1°C° 0 mm 3 mps 751 mmHg 76%
    14:00 -1°C° 0 mm 3 mps 751 mmHg 78%
    15:00 -1°C° 0.3 mm 3 mps 751 mmHg 81%
    16:00 -1°C° 0.3 mm 3 mps 751 mmHg 85%
    17:00 -1°C° 0.3 mm 3 mps 751 mmHg 88%
    18:00 -1°C° 0.2 mm 2 mps 751 mmHg 90%
    19:00 -1°C° 0.2 mm 2 mps 751 mmHg 92%
    20:00 -1°C° 0.2 mm 2 mps 751 mmHg 93%
    21:00 -1°C° 0 mm 2 mps 752 mmHg 94%
    22:00 -1°C° 0 mm 2 mps 752 mmHg 94%
    23:00 -1°C° 0 mm 2 mps 752 mmHg 95%

    26 November, Sunday

    Time Temperature Precipitation Wind Pressure Humidity
    00:00 -1°C° 0 mm 2 mps 752 mmHg 95%
    01:00 -1°C° 0 mm 2 mps 752 mmHg 95%
    02:00 -1°C° 0 mm 2 mps 752 mmHg 95%
    03:00 -1°C° 0 mm 2 mps 751 mmHg 95%
    04:00 -1°C° 0 mm 3 mps 751 mmHg 95%
    05:00 -1°C° 0 mm 3 mps 751 mmHg 94%
    06:00 0°C° 0 mm 3 mps 751 mmHg 94%
    07:00 0°C° 0 mm 3 mps 751 mmHg 93%
    08:00 -1°C° 0 mm 4 mps 750 mmHg 92%
    09:00 0°C° 0 mm 4 mps 750 mmHg 90%
    10:00 0°C° 0 mm 4 mps 750 mmHg 89%
    11:00 +1°C° 0 mm 4 mps 749 mmHg 87%
    12:00 +1°C° 0 mm 5 mps 749 mmHg 86%
    13:00 +1°C° 0 mm 5 mps 749 mmHg 86%
    14:00 +1°C° 0 mm 5 mps 748 mmHg 85%
    15:00 +1°C° 0 mm 5 mps 748 mmHg 85%
    16:00 +1°C° 0 mm 5 mps 748 mmHg 86%
    17:00 +1°C° 0 mm 5 mps 748 mmHg 86%
    18:00 +1°C° 0 mm 5 mps 748 mmHg 86%
    19:00 +1°C° 0 mm 5 mps 747 mmHg 87%
    20:00 0°C° 0 mm 5 mps 747 mmHg 87%
    21:00 0°C° 0 mm 5 mps 747 mmHg 87%
    22:00 0°C° 0 mm 5 mps 747 mmHg 87%
    23:00 0°C° 0 mm 5 mps 747 mmHg 88%

    27 November, Monday

    Time Temperature Precipitation Wind Pressure Humidity
    00:00 0°C° 0 mm 4 mps 747 mmHg 88%
    01:00 0°C° 0 mm 4 mps 748 mmHg 88%
    02:00 0°C° 0 mm 4 mps 748 mmHg 89%
    03:00 0°C° 0 mm 4 mps 748 mmHg 89%
    04:00 +1°C° 0 mm 3 mps 748 mmHg 90%
    05:00 0°C° 0 mm 3 mps 748 mmHg 91%
    06:00 0°C° 0 mm 3 mps 749 mmHg 92%
    07:00 +1°C° 0 mm 2 mps 749 mmHg 94%
    08:00 -1°C° 0 mm 2 mps 749 mmHg 95%
    09:00 +1°C° 0 mm 2 mps 750 mmHg 94%
    10:00 +1°C° 0 mm 2 mps 750 mmHg 92%
    11:00 +2°C° 0 mm 1 mps 750 mmHg 91%
    12:00 +2°C° 0 mm 1 mps 750 mmHg 92%
    13:00 +2°C° 0 mm 1 mps 750 mmHg 93%
    14:00 +2°C° 0 mm 1 mps 750 mmHg 94%
    15:00 +1°C° 0 mm 1 mps 750 mmHg 95%
    16:00 +1°C° 0 mm 1 mps 750 mmHg 95%
    17:00 +1°C° 0 mm 1 mps 750 mmHg 95%
    18:00 +1°C° 0 mm 1 mps 750 mmHg 96%
    19:00 +1°C° 0 mm 1 mps 750 mmHg 96%
    20:00 +1°C° 0 mm 1 mps 750 mmHg 96%
    21:00 +1°C° 0.2 mm 1 mps 750 mmHg 96%
    22:00 +1°C° 0.2 mm 1 mps 750 mmHg 96%
    23:00 -1°C° 0.2 mm 2 mps 749 mmHg 96%

    28 November, Tuesday

    Time Temperature Precipitation Wind Pressure Humidity
    00:00 -1°C° 0.2 mm 2 mps 749 mmHg 96%
    01:00 -1°C° 0.2 mm 2 mps 749 mmHg 95%
    02:00 -1°C° 0.2 mm 2 mps 749 mmHg 94%
    03:00 -1°C° 0.2 mm 2 mps 749 mmHg 94%
    04:00 -1°C° 0.2 mm 2 mps 748 mmHg 94%
    05:00 -1°C° 0.2 mm 2 mps 748 mmHg 93%
    06:00 -1°C° 0.1 mm 2 mps 748 mmHg 93%
    07:00 -2°C° 0.1 mm 3 mps 748 mmHg 93%
    08:00 -2°C° 0.1 mm 3 mps 748 mmHg 93%
    09:00 -2°C° 0.1 mm 3 mps 748 mmHg 90%
    10:00 -2°C° 0.1 mm 3 mps 748 mmHg 88%
    11:00 -2°C° 0.1 mm 3 mps 748 mmHg 86%
    12:00 -2°C° 0 mm 3 mps 748 mmHg 85%
    13:00 -2°C° 0 mm 3 mps 748 mmHg 84%
    14:00 -2°C° 0 mm 3 mps 748 mmHg 83%
    15:00 -2°C° 0.1 mm 3 mps 748 mmHg 84%
    16:00 -4°C° 0.1 mm 3 mps 748 mmHg 85%
    17:00 -4°C° 0.1 mm 3 mps 748 mmHg 87%
    18:00 -4°C° 0.2 mm 3 mps 747 mmHg 87%
    19:00 -4°C° 0.2 mm 3 mps 747 mmHg 88%
    20:00 -4°C° 0.2 mm 3 mps 747 mmHg 89%
    21:00 -4°C° 0.1 mm 3 mps 747 mmHg 89%
    22:00 -4°C° 0.1 mm 3 mps 747 mmHg 88%
    23:00 -4°C° 0.1 mm 3 mps 747 mmHg 88%
    Show more